Theta_e
311 310 309 308 308 307 307 310 308 309 313 314 311 309 310 308 308 309 309 308 305 305
311 310 308 308 308 308 310 311 311 311 309 308 307 309 308 306 306 306 308 308 306 306
309 309 309 310 310 310 309 310 310 309 309 308 308 307 307 305 306 307 307 307 306 307
308 310 311 307 307 308 308 309 309 307 307 306 306 307 306 305 305 305 305 306 305 307
309 308 308 308 308 308 308 309 309 308 307 306 307 307 306 305 306 305 305 305 306 309
308 305 307 306 307 307 307 308 306 307 306 306 307 307 307 307 306 306 306 305 305 308
307 306 306 306 306 307 308 306 306 306 306 306 306 307 308 307 306 306 307 306 307 309
306 306 306 306 307 307 307 307 307 306 306 306 307 308 307 306 303 302 306 305 308 309
306 306 306 306 305 306 306 306 306 306 306 306 307 306 306 305 302 306 306 305 307 308
306 306 306 306 305 305 305 306 305 306 306 305 305 304 303 305 301 303 305 306 304 306
305 305 305 305 305 305 305 305 305 306 305 305 306 304 301 303 299 302 307 307 308 308
305 305 305 304 304 305 305 305 305 306 305 300 303 301 301 300 303 304 305 308 310 309
305 305 304 304 304 305 306 305 304 305 301 305 303 299 300 299 306 303 306 306 306 304
306 304 304 304 305 304 304 303 303 304 305 306 303 298 299 298 305 306 306 305 303 302
Wind_Speed
5 2 2 2 3 3 4 3 5 6 5 3 3 3 3 3 4 5 5 6 5 4
4 3 3 4 3 3 4 6 6 5 5 3 3 4 5 4 6 5 6 5 6 4
1 3 5 5 5 7 7 6 6 5 3 5 7 7 5 5 5 5 5 5 6 5
5 5 4 3 2 6 9 8 5 5 5 8 8 6 5 5 6 6 6 5 6 6
6 5 5 6 7 8 8 6 6 8 8 9 8 7 7 7 6 6 7 7 6 4
5 6 7 8 8 9 7 5 9 8 9 9 8 7 7 7 5 6 8 6 3 1
5 7 8 8 8 8 5 6 8 8 9 9 8 7 8 6 4 5 5 4 2 3
5 7 7 6 6 8 8 9 9 9 9 8 5 5 4 4 4 5 5 4 3 5
6 7 6 5 8 8 9 9 9 8 8 7 4 6 6 3 2 5 4 2 0 2
6 8 5 7 8 9 9 8 8 7 6 3 3 5 2 3 2 4 4 2 2 2
9 11 6 9 8 8 7 7 7 6 4 3 3 3 4 2 1 3 2 2 2 1
9 7 9 9 9 8 7 6 5 5 4 3 4 6 5 3 3 1 4 4 5 7
9 5 8 9 9 7 7 6 4 5 1 4 5 6 6 4 3 4 4 6 6 9
5 6 7 8 7 8 6 4 3 4 4 5 5 5 7 6 4 3 4 5 4 4
Wind_Direction
83 59 333 297 293 289 285 282 287 300 319 355 13 346 319 297 278 280 285 278 271 261
51 24 302 310 312 290 309 317 314 305 308 323 293 272 269 267 273 272 272 269 255 258
28 350 11 14 -0 333 319 318 311 303 316 298 298 292 280 272 281 278 285 275 265 263
352 44 38 326 325 317 304 297 292 272 275 296 290 274 266 262 272 273 282 283 263 265
29 18 351 328 321 311 297 295 293 289 285 290 280 269 261 262 277 282 284 278 276 271
21 7 333 319 311 307 295 286 303 297 289 285 280 274 259 250 265 267 273 277 258 348
10 333 313 310 310 302 291 291 294 293 290 282 276 272 265 263 262 282 290 284 206 119
343 314 304 301 308 316 305 299 297 292 290 284 272 272 255 245 272 277 289 290 201 183
323 312 303 311 317 314 313 310 304 299 294 289 271 292 276 252 293 316 341 304 280 179
328 321 316 316 321 318 314 310 309 306 312 310 302 308 239 228 254 301 317 329 54 104
329 327 318 323 319 316 311 309 310 310 306 315 317 334 146 158 261 304 320 46 114 77
325 320 327 325 322 317 310 309 312 316 324 339 43 86 120 84 316 47 56 56 75 97
322 327 329 321 318 308 304 301 311 324 52 61 91 89 76 30 6 97 92 63 76 70
321 330 328 317 322 339 348 349 350 36 47 79 96 75 66 56 22 109 104 95 79 58